| time (UTC) | temp C | wind direction | speed KPH | gust KPH | rain 1hr cm | rain 24hr cm | rain mn cm | humidity % | barometer mb |
| 20260504150325 | 15 | 352 | 27.4 | 45.1 | 0.00 | 1.32 | 0.00 | 45 | 1009.0 |
| 20260504130625 | 16 | 359 | 27.4 | 51.5 | 0.00 | 1.40 | 1.32 | 40 | 1006.1 |
| 20260504081825 | 22 | 355 | 22.5 | 45.1 | 0.00 | 1.45 | 1.32 | 40 | 998.7 |
| 20260504080924 | 22 | 349 | 22.5 | 45.1 | 0.00 | 1.45 | 1.32 | 39 | 998.3 |
| 20260504050025 | 28 | 213 | 9.7 | 24.1 | 0.00 | 1.45 | 1.32 | 22 | 994.6 |
| 20260504045124 | 29 | 210 | 12.9 | 24.1 | 0.00 | 1.45 | 1.32 | 23 | 994.5 |
| 20260504044225 | 29 | 214 | 12.9 | 27.4 | 0.00 | 1.45 | 1.32 | 22 | 994.5 |
| 20260504042425 | 29 | 220 | 9.7 | 25.7 | 0.00 | 1.45 | 1.32 | 25 | 994.4 |
| 20260504041525 | 29 | 213 | 9.7 | 24.1 | 0.00 | 1.45 | 1.32 | 24 | 994.6 |
| 20260504040624 | 29 | 210 | 8.0 | 22.5 | 0.00 | 1.45 | 1.32 | 23 | 994.4 |
| 20260504035725 | 29 | 200 | 8.0 | 24.1 | 0.00 | 1.45 | 1.32 | 23 | 994.2 |
| 20260504034825 | 30 | 213 | 6.4 | 24.1 | 0.00 | 1.45 | 1.32 | 24 | 994.3 |
| 20260504033924 | 29 | 214 | 3.2 | 12.9 | 0.00 | 1.45 | 1.32 | 26 | 994.2 |
| 20260504033025 | 29 | 212 | 4.8 | 19.3 | 0.00 | 1.45 | 1.32 | 27 | 994.4 |
| 20260504031225 | 29 | 217 | 8.0 | 30.6 | 0.00 | 1.45 | 1.32 | 32 | 994.8 |
| 20260504025424 | 29 | 200 | 8.0 | 29.0 | 0.00 | 1.45 | 1.32 | 33 | 994.9 |
| 20260504024525 | 29 | 319 | 3.2 | 12.9 | 0.00 | 1.45 | 1.32 | 46 | 995.0 |
| 20260504023624 | 28 | 339 | 3.2 | 11.3 | 0.00 | 1.45 | 1.32 | 54 | 995.3 |
| 20260504022725 | 28 | 18 | 4.8 | 12.9 | 0.00 | 1.45 | 1.32 | 53 | 995.5 |
| 20260504021824 | 27 | 342 | 9.7 | 19.3 | 0.00 | 1.45 | 1.32 | 58 | 995.6 |
| 20260504020925 | 27 | 301 | 4.8 | 12.9 | 0.00 | 1.45 | 1.32 | 60 | 995.9 |
| 20260504020025 | 26 | 291 | 0.0 | 9.7 | 0.00 | 1.45 | 1.32 | 58 | 995.9 |
| 20260504015124 | 26 | 315 | 3.2 | 11.3 | 0.00 | 1.45 | 1.32 | 63 | 996.1 |
| 20260504014225 | 26 | 73 | 1.6 | 6.4 | 0.00 | 1.45 | 1.32 | 68 | 996.0 |
| 20260504013325 | 25 | 44 | 1.6 | 12.9 | 0.00 | 1.45 | 1.32 | 66 | 996.1 |
| 20260504012424 | 25 | 292 | 3.2 | 11.3 | 0.00 | 1.45 | 1.32 | 71 | 996.5 |
| 20260504011525 | 24 | 280 | 1.6 | 8.0 | 0.00 | 1.45 | 1.32 | 75 | 996.8 |
| 20260504010624 | 23 | 347 | 1.6 | 9.7 | 0.00 | 1.45 | 1.32 | 81 | 996.7 |
| 20260504005725 | 22 | 315 | 1.6 | 9.7 | 0.00 | 1.45 | 1.32 | 84 | 996.6 |
| 20260504004825 | 21 | 153 | 0.0 | 3.2 | 0.00 | 1.45 | 1.32 | 86 | 996.8 |
| 20260504003924 | 21 | 204 | 0.0 | 8.0 | 0.00 | 1.45 | 1.32 | 86 | 996.9 |
| 20260504003025 | 20 | 206 | 0.0 | 6.4 | 0.00 | 1.45 | 1.32 | 88 | 997.4 |
| 20260504001225 | 20 | 123 | 0.0 | 4.8 | 0.00 | 1.45 | 1.32 | 91 | 997.6 |
| 20260503235425 | 18 | 0 | 0.0 | 0.0 | 0.00 | 1.45 | 1.32 | 92 | 997.6 |
| 20260503234524 | 18 | 175 | 1.6 | 6.4 | 0.00 | 1.45 | 1.32 | 92 | 997.9 |
| 20260503233624 | 18 | 210 | 0.0 | 4.8 | 0.00 | 1.45 | 1.32 | 92 | 997.9 |
| 20260503232724 | 18 | 0 | 0.0 | 0.0 | 0.00 | 1.45 | 1.32 | 92 | 997.7 |
| 20260503231824 | 17 | 0 | 0.0 | 0.0 | 0.03 | 1.45 | 1.32 | 92 | 998.0 |
| 20260503230925 | 17 | 113 | 0.0 | 1.6 | 0.03 | 1.45 | 1.32 | 92 | 997.9 |
| 20260503230025 | 17 | 0 | 0.0 | 0.0 | 0.03 | 1.45 | 1.32 | 92 | 997.6 |
| 20260503225125 | 17 | 0 | 0.0 | 0.0 | 0.03 | 1.45 | 1.32 | 92 | 997.6 |
| 20260503224224 | 17 | 112 | 0.0 | 4.8 | 0.03 | 1.45 | 1.32 | 92 | 997.6 |
| 20260503223324 | 17 | 93 | 0.0 | 3.2 | 0.08 | 1.45 | 1.32 | 92 | 997.5 |
| 20260503221525 | 16 | 0 | 0.0 | 0.0 | 0.05 | 1.42 | 1.30 | 92 | 997.3 |
| 20260503220625 | 16 | 0 | 0.0 | 0.0 | 0.05 | 1.42 | 1.30 | 92 | 997.3 |
| 20260503215724 | 16 | 0 | 0.0 | 0.0 | 0.05 | 1.42 | 1.30 | 92 | 997.1 |
| 20260503214825 | 16 | 0 | 0.0 | 0.0 | 0.08 | 1.42 | 1.30 | 92 | 997.3 |
| 20260503213925 | 16 | 0 | 0.0 | 0.0 | 0.05 | 1.40 | 1.27 | 92 | 997.1 |
| 20260503213025 | 16 | 0 | 0.0 | 0.0 | 0.03 | 1.37 | 1.24 | 92 | 997.1 |
| 20260503212125 | 16 | 0 | 0.0 | 0.0 | 0.03 | 1.37 | 1.24 | 92 | 997.1 |
| 20260503211224 | 16 | 0 | 0.0 | 0.0 | 0.03 | 1.37 | 1.24 | 92 | 996.6 |
| 20260503210324 | 16 | 0 | 0.0 | 0.0 | 0.05 | 1.37 | 1.24 | 92 | 996.8 |
| 20260503205424 | 16 | 0 | 0.0 | 0.0 | 0.03 | 1.35 | 1.22 | 92 | 996.8 |
| 20260503203625 | 16 | 120 | 0.0 | 4.8 | 0.08 | 1.35 | 1.22 | 92 | 996.7 |
| 20260503202724 | 16 | 312 | 1.6 | 6.4 | 0.08 | 1.35 | 1.22 | 92 | 996.6 |
| 20260503201824 | 16 | 293 | 3.2 | 11.3 | 0.10 | 1.35 | 1.22 | 92 | 997.0 |
| 20260503200925 | 16 | 279 | 0.0 | 4.8 | 0.13 | 1.32 | 1.19 | 92 | 996.8 |
| 20260503200025 | 16 | 298 | 1.6 | 8.0 | 0.18 | 1.32 | 1.19 | 92 | 996.7 |
| 20260503195126 | 16 | 292 | 0.0 | 6.4 | 0.23 | 1.32 | 1.19 | 92 | 996.8 |
| 20260503194225 | 16 | 276 | 0.0 | 6.4 | 0.28 | 1.30 | 1.17 | 92 | 996.9 |
| 20260503193325 | 16 | 277 | 0.0 | 6.4 | 0.30 | 1.27 | 1.14 | 92 | 997.2 |
| 20260503192425 | 16 | 277 | 0.0 | 3.2 | 0.38 | 1.24 | 1.12 | 92 | 997.1 |
| 20260503191525 | 16 | 0 | 0.0 | 0.0 | 0.46 | 1.22 | 1.09 | 92 | 997.4 |
| 20260503190625 | 16 | 0 | 0.0 | 0.0 | 0.48 | 1.17 | 1.04 | 92 | 997.7 |
| 20260503185725 | 16 | 0 | 0.0 | 0.0 | 0.46 | 1.12 | 0.99 | 92 | 998.0 |
| 20260503184825 | 16 | 128 | 0.0 | 4.8 | 0.46 | 1.04 | 0.91 | 92 | 997.9 |
| 20260503183024 | 16 | 0 | 0.0 | 0.0 | 0.48 | 0.91 | 0.81 | 92 | 998.5 |
| 20260503182125 | 16 | 0 | 0.0 | 0.0 | 0.43 | 0.84 | 0.71 | 92 | 998.8 |
| 20260503181225 | 16 | 0 | 0.0 | 0.0 | 0.36 | 0.71 | 0.58 | 92 | 998.7 |
| 20260503180324 | 16 | 0 | 0.0 | 0.0 | 0.38 | 0.69 | 0.56 | 92 | 999.2 |
| 20260503175424 | 16 | 0 | 0.0 | 0.0 | 0.36 | 0.64 | 0.51 | 92 | 999.4 |
| 20260503174525 | 16 | 292 | 0.0 | 1.6 | 0.30 | 0.53 | 0.41 | 92 | 999.7 |
| 20260503173624 | 16 | 301 | 0.0 | 3.2 | 0.28 | 0.46 | 0.33 | 92 | 999.9 |
| 20260503172725 | 16 | 301 | 0.0 | 3.2 | 0.25 | 0.43 | 0.30 | 92 | 999.7 |
| 20260503171824 | 16 | 328 | 3.2 | 9.7 | 0.20 | 0.38 | 0.25 | 92 | 999.7 |
| 20260503170925 | 16 | 308 | 3.2 | 9.7 | 0.18 | 0.33 | 0.20 | 92 | 1000.1 |